Lid_Strength_Index
1 1 0 0 -0 -0 -1 -1 -1 -1 -1 -0 -0 -0 -0 -0 1 2 7 3 2 -2 -0 5 6 7 6 7 7 9 13 15 14 13 12 11 11 10 10 11 11 10 10 9 7
1 1 1 0 0 -0 -1 -1 -1 -1 -0 -0 -0 -0 -0 -0 3 5 1 -1 -3 -2 5 7 8 7 9 8 8 11 14 13 11 12 12 11 11 11 11 12 12 11 10 8 7
1 1 1 1 0 -0 -0 -1 -1 -1 -1 -0 -0 -0 -0 1 7 6 -2 -2 -2 -1 5 6 6 7 10 10 9 10 13 11 10 10 10 11 11 11 12 12 11 11 10 10 8
1 1 1 1 0 0 -0 -1 -1 -1 -1 -0 -0 0 0 4 13 4 -2 -2 -2 3 5 7 8 10 11 12 10 12 9 9 8 9 10 11 10 10 10 9 9 9 9 10 10
1 1 1 1 1 0 -0 -0 -1 -1 -1 -0 -0 0 4 9 8 1 -1 -1 2 5 7 8 9 10 12 11 11 12 11 10 9 9 10 10 10 11 10 9 9 9 10 11 10
1 1 1 1 1 0 0 -0 -1 -1 -0 0 0 1 7 10 3 1 2 3 5 6 7 8 9 8 10 11 12 12 11 11 10 10 11 11 12 11 10 11 10 10 10 11 11
1 1 1 1 1 0 0 -0 -0 -0 0 0 0 3 7 7 3 2 2 4 5 6 7 7 7 9 10 12 10 11 12 12 11 12 12 11 13 12 10 11 11 10 12 11 11
1 2 2 1 1 0 -0 -0 -0 -0 0 0 0 4 9 5 5 4 4 6 5 6 6 7 8 9 10 10 11 14 15 16 13 13 13 13 15 12 10 12 11 11 12 11 11
1 1 1 1 2 1 1 0 0 -0 1 1 5 7 9 4 7 6 7 7 7 7 8 6 8 10 10 14 15 16 18 17 15 12 13 15 16 12 11 12 11 13 12 12 12
2 3 3 2 1 1 0 0 1 2 3 2 4 10 9 9 7 7 8 7 8 8 9 10 12 13 13 16 18 17 18 17 16 14 14 14 15 13 11 12 14 14 14 13 13
2 2 2 3 2 1 2 5 7 8 7 8 9 9 8 7 7 8 8 8 9 10 13 12 15 16 15 14 16 16 17 17 16 13 15 15 15 13 12 13 14 14 14 14 13
2 2 2 2 2 2 3 6 7 7 9 6 8 9 8 8 9 8 7 10 11 13 13 15 17 14 13 14 15 16 17 17 15 14 15 16 15 15 14 14 14 14 14 14 14
2 3 2 2 2 3 4 6 7 8 10 8 6 7 8 8 9 9 8 10 13 14 14 15 14 13 14 15 15 16 17 17 16 15 16 17 17 16 15 14 14 14 14 14 15
3 3 3 2 3 4 5 6 7 7 13 12 10 10 10 9 11 10 9 10 13 14 14 15 13 14 14 14 14 16 14 14 15 18 20 17 21 17 16 16 15 15 15 15 15
2 3 3 2 5 6 5 6 7 8 19 11 12 9 10 10 12 12 10 11 13 13 13 14 15 15 14 13 13 15 14 15 17 18 18 18 20 18 16 17 16 16 15 15 15
2 2 3 3 3 5 7 7 7 13 19 14 13 13 14 13 13 12 12 11 12 14 14 14 14 14 14 14 13 14 15 16 17 18 21 18 18 18 17 16 16 16 16 15 16
2 3 3 2 5 6 6 6 13 18 11 14 15 14 15 15 14 14 15 15 16 17 17 16 15 14 13 15 14 15 16 19 21 21 21 17 19 18 15 14 15 16 16 16 16
2 3 3 3 5 5 5 9 18 13 13 13 14 14 15 15 15 14 16 17 15 16 17 17 18 14 13 14 15 16 15 19 23 22 20 18 19 18 15 15 15 15 15 15 16
3 3 4 5 4 3 7 15 15 12 10 11 12 15 16 14 14 15 16 16 14 14 16 17 16 14 13 13 12 15 17 15 18 25 22 19 18 15 15 15 15 15 15 16 16
4 5 5 4 4 5 10 13 13 9 9 10 14 12 14 13 14 14 15 13 13 13 12 14 17 15 14 13 14 14 13 17 18 24 26 20 19 18 17 16 15 15 15 15 15
5 8 4 3 4 8 15 14 12 9 8 10 12 13 12 13 12 13 12 12 12 13 12 13 14 16 14 15 15 16 17 16 16 18 22 23 19 15 14 14 15 14 14 14 14
7 10 5 3 11 10 12 11 9 10 8 9 10 11 12 11 13 13 13 12 10 11 14 12 15 19 16 14 12 14 15 15 18 19 18 18 18 12 13 13 13 13 13 13 13
9 9 5 5 13 12 10 10 9 10 10 10 11 10 10 12 14 12 11 10 10 11 12 12 16 22 19 15 14 15 14 14 14 15 20 19 19 13 13 12 12 12 13 13 15
8 11 9 8 8 10 11 11 11 9 9 9 10 10 11 12 10 13 12 11 11 10 9 10 15 19 20 17 16 17 16 15 16 19 17 16 15 14 13 13 12 13 14 15 15
8 11 10 12 11 10 10 10 11 12 9 9 11 11 11 13 13 13 13 13 13 11 12 11 15 15 15 15 15 16 16 15 16 16 17 16 14 12 12 12 13 14 15 15 14
11 12 11 13 11 10 10 11 11 10 10 11 11 10 10 12 12 13 12 14 14 14 13 13 18 17 19 14 15 16 16 14 14 13 14 13 15 12 15 15 16 15 14 14 14
10 10 12 12 12 11 12 10 10 9 11 11 10 11 11 10 10 12 12 11 11 13 14 15 17 22 25 18 19 22 19 16 15 15 14 17 14 16 15 15 15 15 14 14 14